Regional Weather Roundup
Issued by NWS Northern Indiana

Home | Current Version | Previous Version | Graphics & Text | Print | Product List | Glossary On
Versions: 1 2 3 4 5 6 7 8 9 10 11 12 13 14 15 16 17 18 19 20 21 22 23 24 25 26 27 28 29 30 31 32 33 34 35 36 37 38 39 40 41 42 43 44 45 46 47 48 49 50
000
ASUS43 KIWX 011500
RWRIWX

KIWX WEATHER ROUNDUP
NATIONAL WEATHER SERVICE NORTHERN INDIANA
1100 AM EDT WED JUL 01 2015

NOTE: "FAIR" INDICATES FEW OR NO CLOUDS BELOW 12,000 FEET WITH NO
SIGNIFICANT WEATHER AND/OR OBSTRUCTIONS TO VISIBILITY.

* THESE STATIONS ARE NOT UNDER NWS QUALITY CONTROL. THEY ALSO MAY NOT
  REPORT WEATHER SUCH AS PRECIPITATION OR FOG.

INZ001>027-011600-
NORTHERN INDIANA

CITY           SKY/WX    TMP DP  RH WIND       PRES   REMARKS
GARY*          PTSUNNY   63  54  72 NE8       29.98R
KNOX*          CLOUDY    63  55  77 N3        29.96R
SOUTH BEND     MOSUNNY   65  54  67 NW10      29.96R
ELKHART*       PTSUNNY   63  54  72 NW7       29.96R
GOSHEN         SUNNY     65  55  70 NW8       29.95R
MONTICELLO*    SUNNY     65  60  83 N6        29.94F
WARSAW*          N/A     64  55  72 NW6       29.95R
ANGOLA*        MOSUNNY   64  55  72 NW5       29.93S
FORT WAYNE     PTSUNNY   67  57  70 NW9       29.95R

$$
INZ028>050-011600-
CENTRAL INDIANA

CITY           SKY/WX    TMP DP  RH WIND       PRES   REMARKS
LAFAYETTE      SUNNY     67  59  75 E5        29.94S
KOKOMO*        SUNNY     70  59  68 N6        29.94F
MUNCIE*        SUNNY     70  59  68 VRB3      29.95F
INDIANAPOLIS   PTSUNNY   72  58  61 VRB3      29.93R

$$
MIZ043>046-050>051-056>058-064>065-071>073-077>080-011600-
SOUTHWEST LOWER MICHIGAN

CITY           SKY/WX    TMP DP  RH WIND       PRES   REMARKS
BATTLE CREEK   CLOUDY    62  55  77 NW8       29.93S
BENTON HARBOR  CLOUDY    60  53  77 VRB6      29.97R
COLDWATER*     CLOUDY    61  56  82 NW5       29.93S
HILLSDALE*     CLOUDY    63  59  86 W6        29.92S
HOLLAND        MOSUNNY   61  51  70 NW10G17   29.96R
GRAND RAPIDS   CLOUDY    59  52  77 W7        29.94R
KALAMAZOO      PTSUNNY   63  53  70 VRB7      29.94S
STURGIS*       SUNNY     63  55  77 NW6       29.94S
THREE RIVERS*  FAIR      63  54  72 W6        29.95R

$$
OHZ001>008-015>018-024>025-011600-
NORTHWEST OHIO

CITY           SKY/WX    TMP DP  RH WIND       PRES   REMARKS
DEFIANCE       CLOUDY    64  56  75 NW9       29.93S
FINDLAY        CLOUDY    65  57  75 NW9       29.92R
TOLEDO EXPRESS PTSUNNY   67  58  72 NW8       29.90S
TOLEDO METCALF PTSUNNY   69  59  70 W9        29.90S
LIMA           MOSUNNY   67  57  70 NW10      29.93R

$$
AND FOR LAKE MICHIGAN COASTAL AND OPEN LAKE BUOY OBSERVATIONS

STATION/POSITION TEMP    WIND        PRES    VSBY  WAVE
                 AIR SEA DIR/SP/G                  HT/PER
                 (F)     (DEG/KT/KT) (MB)    (MI)  (FT/S)
CALUMET HARBOR    58     350/  6/  8   N/A
MICHIGAN CITY     58     340/  9/ 12   N/A
BURNS HARBOR      58      10/  9/ 11 1015.2S
SAINT JOSEPH      59     340/  7/ 10   N/A
4 MI NW BRIDGMAN  58 63                N/A           4/ 6
MICHIGAN CITY     58 65   20/  8/ 10   N/A           4/ 6

$$
&&



USA.gov is the U.S. government's official web portal to all federal, state and local government web resources and services.